Location: *
(55.5817°S, 142.4781°W)
Time: 07:17:43
(UTC+00:00)

ATLAS 5 CENTAUR R/B - Pass Details

Date: 29 April 2025
Orbit: 389 x 1115 km, 63.3° (Epoch: 23 May)

Event Time Altitude Azimuth Distance (km) Brightness Sun altitude
Exits shadow 13:35:42 49° 341° (NNW) 1,405 3.0 -27.7°
Maximum altitude 13:37:43 70° 45° (NE) 1,155 2.8 -27.4°
Drops below altitude 10° 13:44:24 10° 127° (SE) 2,773 5.7 -26.5°
Sets 13:46:52 0° 129° (SE) 3,636 6.5 -26.1°
